Hurricane Symbol View the latest observations near Atlantic Tropical Depression Alberto.

Station PORO3 - 9431647 - Port Orford, OR Image indicating link to RSS feed of recent meteorological observations for station PORO3


Conditions at PORO3 as of
(8:48 am PDT)
1548 GMT on 06/20/2024:
     

Click on the graph icon in the table below to see a time series plot of the last five days of that observation.

5-day plot - Wind Direction Wind Direction (WDIR): N ( 10 deg true )
5-day plot - Wind Speed Wind Speed (WSPD): 12.0 kts
5-day plot - Wind Gust Wind Gust (GST): 18.1 kts
5-day plot - Atmospheric Pressure Atmospheric Pressure (PRES):29.97 in
5-day plot - Air Temperature Air Temperature (ATMP): 56.5 °F
5-day plot - Water Temperature Water Temperature (WTMP): 45.7 °F
5-day plot - Wind Speed at 10 Meters Wind Speed at 10 meters (WSPD10M): 11.7 kts
5-day plot - Wind Speed at 20 Meters Wind Speed at 20 meters (WSPD20M): 13.6 kts
5-day plot -  Wind Speed, Wind Gust and Atmospheric Pressure Combined plot of Wind Speed, Gust, and Air Pressure
NOS Water Level Observation Network Water Level
Previous observations
TIME
(PDT)
5-day plot - Wind Direction
WDIR
 
5-day plot - Wind Speed
WSPD
kts
5-day plot - Wind Gust
GST
kts
5-day plot - Wave Height
WVHT
ft
5-day plot - Dominant Wave Period
DPD
sec
5-day plot - Average Wave Period
APD
sec
5-day plot - Mean Wave Direction
MWD
 
5-day plot - Atmospheric Pressure
PRES
in
5-day plot - Pressure Tendency
PTDY
in
5-day plot - Air Temperature
ATMP
°F
5-day plot - Water Temperature
WTMP
°F
5-day plot - Dew Point
DEWP
°F
5-day plot - Salinity
SAL
psu
5-day plot - Visibility
VIS
nmi
5-day plot - Tide (above MLLW)
TIDE
ft
2024-06-20 08:42 am N 12.0 19.0----29.97- 56.1 45.7----
2024-06-20 08:36 am N 11.1 15.0----29.97- 56.3 45.7----
2024-06-20 08:30 am N 11.1 15.0----29.97- 56.3 45.7----
2024-06-20 08:24 am N 8.9 18.1----29.97- 56.3 45.5----
2024-06-20 08:18 am N 11.1 15.0----29.97- 56.3 45.5----
2024-06-20 08:12 am N 12.0 18.1----29.97- 56.5 45.7----
2024-06-20 08:06 am N 11.1 17.1----29.97- 56.5 45.5----
2024-06-20 08:00 am N 14.0 19.0----29.97+0.03 56.1 45.7----
2024-06-20 07:54 am N 12.0 20.0----29.97- 56.5 45.7----
2024-06-20 07:48 am N 12.0 19.0----29.97- 56.1 45.7----
2024-06-20 07:42 am N 12.0 18.1----29.97- 55.9 45.7----
2024-06-20 07:36 am N 12.0 18.1----29.97- 55.4 45.5----
2024-06-20 07:30 am N 12.0 18.1----29.96- 55.0 45.5----
2024-06-20 07:24 am N 11.1 15.0----29.96- 54.9 45.5----
2024-06-20 07:18 am N 11.1 18.1----29.96- 54.9 45.5----
2024-06-20 07:12 am N 11.1 18.1----29.96- 54.7 45.5----
2024-06-20 07:06 am N 13.0 19.0----29.96- 54.1 45.5----
2024-06-20 07:00 am N 13.0 18.1----29.96+0.02 54.0 45.5----
2024-06-20 06:54 am N 14.0 20.0----29.96- 53.8 45.5----
2024-06-20 06:48 am N 9.9 20.0----29.96- 53.8 45.5----
2024-06-20 06:42 am N 13.0 19.0----29.96- 53.8 45.5----
2024-06-20 06:36 am N 14.0 18.1----29.96- 53.6 45.5----
2024-06-20 06:30 am N 14.0 20.0----29.96- 53.4 45.3----
2024-06-20 06:24 am N 13.0 19.0----29.95- 53.1 45.3----
2024-06-20 06:18 am N 14.0 20.0----29.95- 53.1 45.5----
2024-06-20 06:12 am N 13.0 20.0----29.96- 52.9 45.5----
2024-06-20 06:06 am N 12.0 19.0----29.95- 52.9 45.5----
2024-06-20 06:00 am N 12.0 19.0----29.95+0.00 52.9 45.5----
2024-06-20 05:54 am N 13.0 18.1----29.95- 52.9 45.5----
2024-06-20 05:48 am N 12.0 19.0----29.95- 52.7 45.3----
2024-06-20 05:42 am N 12.0 17.1----29.95- 52.7 45.3----
2024-06-20 05:36 am N 12.0 19.0----29.95- 52.7 45.3----
2024-06-20 05:30 am N 13.0 17.1----29.95- 52.9 45.3----
2024-06-20 05:24 am N 12.0 18.1----29.95- 52.9 45.3----
2024-06-20 05:18 am N 14.0 19.0----29.95- 53.1 45.3----
2024-06-20 05:12 am N 13.0 18.1----29.95- 53.1 45.3----
2024-06-20 05:06 am N 13.0 20.0----29.95- 53.1 45.5----
2024-06-20 05:00 am N 14.0 18.1----29.94-0.01 53.1 45.5----
2024-06-20 04:54 am N 13.0 19.0----29.94- 53.1 45.5----
2024-06-20 04:48 am N 13.0 18.1----29.94- 53.2 45.5----
2024-06-20 04:42 am N 12.0 19.0----29.94- 53.2 45.5----
2024-06-20 04:36 am N 12.0 18.1----29.94- 53.2 45.5----
2024-06-20 04:30 am N 11.1 17.1----29.93- 53.2 45.5----
2024-06-20 04:24 am N 12.0 19.0----29.93- 53.2 45.5----
2024-06-20 04:18 am N 13.0 15.9----29.93- 53.2 45.5----
2024-06-20 04:12 am N 12.0 17.1----29.93- 53.2 45.5----
2024-06-20 04:06 am N 12.0 17.1----29.94- 53.4 45.5----
2024-06-20 04:00 am N 12.0 17.1----29.94-0.02 53.4 45.5----
2024-06-20 03:54 am N 11.1 15.9----29.94- 53.2 45.5----
2024-06-20 03:48 am N 12.0 19.0----29.94- 53.2 45.5----
2024-06-20 03:42 am N 13.0 19.0----29.94- 53.2 45.5----
2024-06-20 03:36 am N 11.1 19.0----29.94- 53.4 45.5----
2024-06-20 03:30 am N 12.0 18.1----29.95- 53.4 45.5----
2024-06-20 03:24 am N 12.0 17.1----29.94- 53.4 45.5----
2024-06-20 03:18 am N 11.1 17.1----29.95- 53.4 45.5----
2024-06-20 03:12 am N 13.0 18.1----29.94- 53.6 45.5----
2024-06-20 03:06 am N 11.1 17.1----29.95- 53.6 45.5----
2024-06-20 03:00 am N 12.0 17.1----29.95-0.02 53.6 45.5----
2024-06-20 02:54 am N 13.0 18.1----29.95- 53.6 45.5----
2024-06-20 02:48 am N 11.1 18.1----29.95- 53.6 45.5----
2024-06-20 02:42 am N 12.0 18.1----29.95- 53.6 45.5----
2024-06-20 02:36 am N 13.0 19.0----29.95- 53.8 45.5----
2024-06-20 02:30 am N 13.0 15.9----29.95- 53.8 45.5----
2024-06-20 02:24 am N 11.1 15.0----29.95- 53.8 45.5----
2024-06-20 02:18 am N 13.0 19.0----29.95- 53.8 45.5----
2024-06-20 02:12 am N 13.0 17.1----29.95- 53.8 45.5----
2024-06-20 02:06 am N 13.0 19.0----29.95- 53.6 45.5----
2024-06-20 02:00 am N 11.1 15.0----29.95-0.01 53.8 45.5----
2024-06-20 01:54 am N 11.1 19.0----29.96- 53.8 45.5----
2024-06-20 01:48 am N 12.0 18.1----29.96- 53.8 45.5----
2024-06-20 01:42 am N 12.0 17.1----29.96- 53.8 45.5----
2024-06-20 01:36 am N 9.9 18.1----29.96- 53.8 45.3----
2024-06-20 01:30 am N 12.0 19.0----29.96- 53.8 45.3----
2024-06-20 01:24 am N 11.1 17.1----29.96- 53.8 45.3----
2024-06-20 01:18 am N 11.1 17.1----29.96- 53.8 45.3----
2024-06-20 01:12 am N 11.1 17.1----29.96- 53.8 45.3----
2024-06-20 01:06 am N 12.0 19.0----29.96- 53.8 45.3----
2024-06-20 01:00 am N 14.0 20.0----29.96+0.01 53.8 45.3----
2024-06-20 12:54 am N 15.0 21.0----29.96- 53.8 45.3----
2024-06-20 12:48 am N 13.0 20.0----29.96- 54.0 45.3----
2024-06-20 12:42 am N 13.0 18.1----29.96- 53.8 45.3----
2024-06-20 12:36 am N 13.0 17.1----29.96- 53.8 45.3----
2024-06-20 12:30 am N 14.0 20.0----29.96- 54.0 45.3----
2024-06-20 12:24 am N 13.0 19.0----29.96- 54.0 45.3----
2024-06-20 12:18 am N 11.1 20.0----29.96- 54.0 45.3----
2024-06-20 12:12 am N 14.0 20.0----29.96- 54.0 45.3----
2024-06-20 12:06 am N 13.0 19.0----29.96- 54.0 45.1----
2024-06-20 12:00 am N 14.0 19.0----29.96+0.02 54.0 45.1----
2024-06-19 11:54 pm N 13.0 18.1----29.97- 54.0 45.1----
2024-06-19 11:48 pm N 12.0 18.1----29.97- 54.1 45.1----
2024-06-19 11:42 pm N 13.0 18.1----29.97- 54.1 45.1----
2024-06-19 11:36 pm N 12.0 19.0----29.97- 54.3 45.1----
2024-06-19 11:30 pm N 13.0 19.0----29.97- 54.3 45.1----
2024-06-19 11:24 pm N 11.1 19.0----29.97- 54.3 45.3----
2024-06-19 11:18 pm N 12.0 20.0----29.97- 54.5 45.3----
2024-06-19 11:12 pm N 14.0 20.0----29.96- 54.5 45.3----
2024-06-19 11:06 pm N 12.0 20.0----29.96- 54.5 45.3----
2024-06-19 11:00 pm N 13.0 19.0----29.96+0.03 54.5 45.3----
2024-06-19 10:54 pm N 13.0 19.0----29.96- 54.5 45.3----
2024-06-19 10:48 pm N 12.0 19.0----29.96- 54.5 45.3----
2024-06-19 10:42 pm N 12.0 20.0----29.96- 54.5 45.3----
2024-06-19 10:36 pm N 14.0 20.0----29.96- 54.5 45.3----
2024-06-19 10:30 pm N 12.0 20.0----29.96- 54.5 45.3----
2024-06-19 10:24 pm N 13.0 19.0----29.96- 54.5 45.3----
2024-06-19 10:18 pm N 12.0 17.1----29.96- 54.7 45.3----
2024-06-19 10:12 pm N 14.0 19.0----29.96- 54.7 45.3----
2024-06-19 10:06 pm N 12.0 15.9----29.96- 54.7 45.3----
2024-06-19 10:00 pm N 12.0 19.0----29.95+0.02 54.7 45.3----
2024-06-19 09:54 pm N 11.1 15.9----29.96- 54.9 45.3----
2024-06-19 09:48 pm N 12.0 15.9----29.96- 54.9 45.3----
2024-06-19 09:42 pm N 13.0 20.0----29.96- 54.9 45.3----
2024-06-19 09:36 pm N 13.0 17.1----29.96- 54.9 45.3----
2024-06-19 09:30 pm N 13.0 18.1----29.95- 54.9 45.3----
2024-06-19 09:24 pm N 12.0 15.0----29.95- 54.9 45.3----
2024-06-19 09:18 pm N 13.0 17.1----29.95- 54.9 45.3----
2024-06-19 09:12 pm N 12.0 18.1----29.94- 54.9 45.3----
2024-06-19 09:06 pm N 11.1 17.1----29.94- 54.9 45.3----
2024-06-19 09:00 pm N 11.1 15.0----29.95+0.02 54.9 45.5----
2024-06-19 08:54 pm N 12.0 17.1----29.95- 55.0 45.5----
2024-06-19 08:48 pm N 13.0 19.0----29.94- 55.0 45.5----
2024-06-19 08:42 pm N 9.9 18.1----29.94- 55.2 45.5----
2024-06-19 08:36 pm N 12.0 20.0----29.94- 55.4 45.5----
2024-06-19 08:30 pm N 13.0 19.0----29.94- 55.6 45.5----
2024-06-19 08:24 pm N 14.0 19.0----29.94- 55.8 45.7----
2024-06-19 08:18 pm N 13.0 18.1----29.94- 55.9 45.7----
2024-06-19 08:12 pm N 11.1 19.0----29.94- 56.3 45.9----
2024-06-19 08:06 pm N 13.0 22.0----29.94- 56.5 45.9----
2024-06-19 08:00 pm N 12.0 19.0----29.94+0.01 57.0 45.9----
2024-06-19 07:54 pm N 14.0 21.0----29.93- 57.4 46.0----
2024-06-19 07:48 pm N 15.0 20.0----29.93- 57.7 46.0----
2024-06-19 07:42 pm N 14.0 22.9----29.93- 57.7 46.0----
2024-06-19 07:36 pm N 14.0 19.0----29.93- 57.9 46.0----
2024-06-19 07:30 pm N 13.0 19.0----29.93- 57.9 45.9----
2024-06-19 07:24 pm N 15.0 21.0----29.93- 58.1 45.9----
2024-06-19 07:18 pm N 15.0 21.0----29.93- 58.1 45.9----
2024-06-19 07:12 pm N 15.0 21.0----29.93- 58.1 45.9----
2024-06-19 07:06 pm N 13.0 22.0----29.93- 58.5 45.9----
2024-06-19 07:00 pm N 14.0 24.1----29.93+0.01 58.5 46.0----
2024-06-19 06:54 pm N 17.1 26.0----29.93- 58.3 46.0----
2024-06-19 06:48 pm N 14.0 22.9----29.93- 58.5 46.0----
2024-06-19 06:42 pm N 13.0 21.0----29.93- 58.6 46.2----
2024-06-19 06:36 pm N 15.9 24.1----29.93- 58.6 46.2----
2024-06-19 06:30 pm N 14.0 20.0----29.93- 58.8 46.2----
2024-06-19 06:24 pm N 12.0 18.1----29.93- 58.8 46.2----
2024-06-19 06:18 pm N 14.0 21.0----29.92- 58.5 46.0----
2024-06-19 06:12 pm N 13.0 22.9----29.93- 58.6 46.0----
2024-06-19 06:06 pm N 13.0 24.1----29.93- 58.6 46.0----
2024-06-19 06:00 pm N 17.1 24.1----29.93+0.00 58.5 46.0----
2024-06-19 05:54 pm N 15.9 26.0----29.93- 58.5 46.0----
2024-06-19 05:48 pm N 15.9 25.1----29.93- 58.5 46.2----
2024-06-19 05:42 pm N 15.9 22.9----29.93- 58.5 46.2----
2024-06-19 05:36 pm N 17.1 25.1----29.93- 58.5 46.2----
2024-06-19 05:30 pm N 18.1 28.9----29.93- 58.3 46.6----
2024-06-19 05:24 pm N 19.0 28.0----29.93- 58.6 46.8----
2024-06-19 05:18 pm N 17.1 26.0----29.93- 58.5 46.8----
2024-06-19 05:12 pm N 13.0 22.9----29.93- 58.6 46.8----
2024-06-19 05:06 pm N 15.0 22.9----29.93- 58.8 46.8----
2024-06-19 05:00 pm N 15.0 25.1----29.93+0.01 58.6 46.8----
2024-06-19 04:54 pm N 17.1 25.1----29.93- 58.8 46.8----
2024-06-19 04:48 pm N 12.0 21.0----29.92- 59.4 46.6----
2024-06-19 04:42 pm N 15.0 27.0----29.92- 58.8 46.8----
2024-06-19 04:36 pm N 17.1 22.9----29.92- 58.8 46.8----
2024-06-19 04:30 pm N 18.1 25.1----29.92- 59.0 46.6----
2024-06-19 04:24 pm N 18.1 25.1----29.92- 59.2 46.6----
2024-06-19 04:18 pm N 12.0 24.1----29.92- 59.5 46.4----
2024-06-19 04:12 pm N 17.1 26.0----29.92- 59.0 46.6----
2024-06-19 04:06 pm N 18.1 25.1----29.92- 59.0 46.6----
2024-06-19 04:00 pm N 15.0 24.1----29.92+0.00 59.2 46.8----
2024-06-19 03:54 pm N 15.0 26.0----29.92- 59.0 46.8----
2024-06-19 03:48 pm N 14.0 27.0----29.92-- 46.8----
2024-06-19 03:42 pm N 18.1 24.1----29.92-- 46.8----
2024-06-19 03:36 pm N 15.0 22.0----29.92-- 46.6----
2024-06-19 03:30 pm N 14.0 24.1----29.92- 59.0 46.6----
2024-06-19 03:24 pm N 15.0 26.0----29.92- 59.0 46.4----
2024-06-19 03:18 pm N 19.0 27.0----29.92- 59.0-----
2024-06-19 03:12 pmNNE 17.1 25.1----29.92- 59.4-----
2024-06-19 03:06 pm N 14.0 22.0----29.92- 59.7-----
2024-06-19 03:00 pm N 12.0 25.1----29.92-0.01 59.5 46.0----
2024-06-19 02:54 pm N 18.1 27.0----29.92- 59.0 46.0----
2024-06-19 02:48 pm N 15.0 27.0----29.91- 59.9 46.0----
2024-06-19 02:42 pm N 14.0 20.0----29.91- 60.3 46.0----
2024-06-19 02:36 pm N 13.0 19.0----29.91- 60.4 46.0----
2024-06-19 02:30 pm N 15.9 22.0----29.91- 60.1 46.0----
2024-06-19 02:24 pm N 13.0 24.1----29.92- 60.4 46.0----
2024-06-19 02:18 pm N 14.0 20.0----29.91- 60.4 46.0----
2024-06-19 02:12 pm N 14.0 19.0----29.91- 61.2 46.0----
2024-06-19 02:06 pm N 14.0 20.0----29.92- 61.7 46.0----
2024-06-19 02:00 pm N 15.0 22.0----29.91-0.03 62.1 46.0----
2024-06-19 01:54 pm N 14.0 22.9----29.92- 61.9 46.0----
2024-06-19 01:48 pm N 14.0 24.1----29.91- 62.4 46.2----
2024-06-19 01:42 pm N 12.0 24.1----29.91- 62.8 46.2----
2024-06-19 01:36 pm N 15.9 22.0----29.91- 62.6 46.2----
2024-06-19 01:30 pmNNW 14.0 20.0----29.91- 63.0 46.4----
2024-06-19 01:24 pm N 14.0 21.0----29.91- 62.8 46.6----
2024-06-19 01:18 pm N 14.0 22.9----29.92- 62.8 46.8----
2024-06-19 01:12 pm N 12.0 21.0----29.92- 63.1 46.9----
2024-06-19 01:06 pm N 13.0 22.9----29.92- 62.6 47.3----
2024-06-19 01:00 pm N 15.0 21.0----29.93-0.02 62.1 47.7----
2024-06-19 12:54 pm N 15.9 25.1----29.92- 62.2 48.0----
2024-06-19 12:48 pm N 15.0 22.9----29.93- 61.7 49.1----
2024-06-19 12:42 pm N 14.0 21.0----29.92- 61.9 49.8----
2024-06-19 12:36 pm N 15.0 21.0----29.92- 62.1 49.5----
2024-06-19 12:30 pm N 15.9 22.0----29.92- 61.7 49.3----
2024-06-19 12:24 pm N 15.9 22.9----29.93- 61.5 49.1----
2024-06-19 12:18 pm N 15.0 21.0----29.92- 62.1 48.9----
2024-06-19 12:12 pm N 14.0 22.0----29.92- 62.6 48.4----
2024-06-19 12:06 pm N 9.9 20.0----29.93- 62.8 48.2----
2024-06-19 12:00 pmNNE 15.0 22.0----29.93-0.01 62.1 48.0----
2024-06-19 11:54 am N 8.0 15.9----29.93- 62.6 47.8----
2024-06-19 11:48 amNNE 8.9 14.0----29.93- 61.9 47.7----
2024-06-19 11:42 am N 8.9 20.0----29.93- 60.8 47.7----
2024-06-19 11:36 am N 7.0 18.1----29.93- 57.0 47.5----
2024-06-19 11:30 amSSE 6.0 6.0----29.93- 50.7 47.5----
2024-06-19 11:24 amSSE 5.1 7.0----29.93- 50.9 47.3----
2024-06-19 11:18 amSSE 1.9 6.0----29.94- 51.6 47.1----
2024-06-19 11:12 am SE 2.9 5.1----29.94- 51.1 46.9----
2024-06-19 11:06 am SE 1.9 4.1----29.94- 51.4 46.9----
2024-06-19 11:00 amESE 1.9 2.9----29.94+0.00 51.6 46.9----
2024-06-19 10:54 am SE 2.9 2.9----29.94- 51.8 46.8----
2024-06-19 10:48 am SE 2.9 5.1----29.94- 51.8 46.8----
2024-06-19 10:42 amSSE 4.1 5.1----29.94- 52.0 46.8----
2024-06-19 10:36 amSSE 1.9 2.9----29.94- 53.2 46.8----
2024-06-19 10:30 am- 0.0 2.9----29.94- 53.6 46.8----
2024-06-19 10:24 amESE 1.9 1.9----29.94- 52.9 46.6----
2024-06-19 10:18 am SE 1.9 4.1----29.94- 52.2 46.2----
2024-06-19 10:12 am SE 2.9 5.1----29.94- 51.8 46.2----
2024-06-19 10:06 am SE 1.9 2.9----29.94- 52.9 46.2----
2024-06-19 10:00 am SE 1.9 2.9----29.94+0.01 52.5 46.2----
2024-06-19 09:54 am SE 2.9 2.9----29.94- 52.2 46.0----
2024-06-19 09:48 am SE 1.9 1.9----29.94- 52.5 45.9----
2024-06-19 09:42 amESE 1.9 2.9----29.94- 52.5 45.9----
2024-06-19 09:36 am SE 1.9 2.9----29.94- 53.4 45.7----
2024-06-19 09:30 am S 1.9 2.9----29.94- 53.8 45.5----
2024-06-19 09:24 am S 1.9 1.9----29.94- 53.8 45.5----
2024-06-19 09:18 am SE 1.0 1.9----29.94- 53.6 45.5----
2024-06-19 09:12 amESE 1.9 1.9----29.94- 53.1 45.5----
2024-06-19 09:06 amESE 1.9 1.9----29.94- 52.7 45.5----
2024-06-19 09:00 amESE 1.9 2.9----29.94+0.03 52.2 45.5----
2024-06-19 08:54 amESE 1.9 2.9----29.95- 52.0 45.3----